Regional Weather Roundup
Issued by NWS Nashville, TN

Home | Current Version | Previous Version | Text Only | Print | Product List | Glossary On
Versions: 1 2 3 4 5 6 7 8 9 10 11 12 13 14 15 16 17 18 19 20 21 22 23 24 25 26 27 28 29 30 31 32 33 34 35 36 37 38 39 40 41 42 43 44 45 46 47 48 49 50
000
ASUS44 KOHX 271715
RWROHX
MIDDLE TENNESSEE HOURLY WEATHER ROUNDUP
NATIONAL WEATHER SERVICE NASHVILLE TN
1200 PM CDT WED AUG 27 2014

NOTE: "FAIR" INDICATES FEW OR NO CLOUDS BELOW 12,000 FEET WITH
NO SIGNIFICANT WEATHER AND/OR OBSTRUCTIONS TO VISIBILITY.

* THESE REPORTS ARE NOT UNDER NWS QUALITY CONTROL AND MAY NOT
  REPORT WEATHER SUCH AS PRECIPITATION AND FOG.


TNZ005>011-023>034-057-059-062>066-078-080-271800
...NORTHERN MIDDLE TENNESSEE...

CITY           SKY/WX    TMP DP  RH WIND       PRES   REMARKS
CLARKSVILLE    MOSUNNY   89  70  53 CALM      30.10F HX  94
CROSSVILLE     PTSUNNY   81  62  52 CALM      30.17F
GALLATIN       PTSUNNY   89  74  61 N9        30.12F HX  97
DICKSON          N/A     86  70  58 CALM      30.13S HX  90
LEBANON        SUNNY     86  69  56 VRB7      30.10F HX  90
LIVINGSTON     SUNNY     81  65  58 CALM      30.15F
NASHVILLE      PTSUNNY   89  70  53 NE8       30.11F HX  94
PORTLAND       MOSUNNY   86  72  62 VRB7      30.12  HX  92
SMYRNA         MOSUNNY   87  72  61 CALM      30.11F HX  93
SPARTA         SUNNY     84  70  61 CALM      30.13F
$$
TNZ056-058-060-061-075>077-079-093>097-271800
...SOUTHERN MIDDLE TENNESSEE...

CITY           SKY/WX    TMP DP  RH WIND       PRES   REMARKS
COLUMBIA       PTSUNNY   86  70  58 CALM      30.11F HX  90
FAYETTEVILLE   PTSUNNY   82  66  57 VRB6      30.13F
LEWISBURG      PTSUNNY   85  69  58 N5        30.12F
MCMINNVILLE    MOSUNNY   84  72  65 VRB6      30.13F
MURFREESBORO   MOSUNNY   85  70  60 N7        30.10F
SHELBYVILLE    MOSUNNY   88  73  62 N6        30.13F HX  96
TULLAHOMA      MOSUNNY   84  70  61 N8        30.14F
WINCHESTER     MOSUNNY   84  70  61 NE5       30.13F
$$


...KEY TO REMARKS...
VSB - VISIBILITY IN MILES
WCI - WIND CHILL INDEX
HX  - HEAT INDEX



USA.gov is the U.S. government's official web portal to all federal, state and local government web resources and services.